Regional Weather Roundup
Issued by NWS Sterling, VA

Home | Current Version | Previous Version | Graphics & Text | Print | Product List | Glossary On
Versions: 1 2 3 4 5 6 7 8 9 10 11 12 13 14 15 16 17 18 19 20 21 22 23 24 25 26 27 28 29 30 31 32 33 34 35 36 37 38 39 40 41 42 43 44 45 46 47 48 49 50
000
ASUS41 KLWX 191210
RWRLWX

REGIONAL WEATHER ROUNDUP
NATIONAL WEATHER SERVICE BALTIMORE MD/WASHINGTON DC
700 AM EST SUN FEB 19 2017

Note: "FAIR" indicates few or no clouds below 12,000 feet
with no significant weather and/or obstructions to visibility.
 TC=TEMPERATURE CELSIUS

 * =Non NWS site. Station does not report precipitation (e.g. rain,
    snow, etc.), thunder, or fog.

DCZ001-MDZ009-015-VAZ040>042-051-053>054-191300-
WASHINGTON METRO

CITY           SKY/WX    TMP DP  RH WIND       PRES   REMARKS
WASHINGTON NAT CLOUDY    56  45  66 N5        29.86R
DULLES         CLOUDY    56  45  66 NW6       29.86R
ANDREWS AFB    CLOUDY    57  45  63 W8        29.84R
FT BELVOIR     CLOUDY    52  49  89 CALM      29.86R
QUANTICO       CLOUDY    51  48  89 CALM      29.87R
COLLEGE PARK*  CLOUDY    55  43  62 W3        29.85R
LEESBURG*      CLOUDY    57  48  72 NW16G22   29.87R
MANASSAS*      CLOUDY    50  47  89 CALM      29.87R
GAITHERSBURG*  MOCLDY    52  41  66 W5        29.90R

$$

MDZ006>007-011-014-191300-
BALTIMORE METRO

CITY           SKY/WX    TMP DP  RH WIND       PRES   REMARKS
BWI AIRPORT    LGT RAIN  56  42  59 W7        29.83R
MD SCIENCE CTR   N/A     62  39  42 MISG      29.84R
MARTIN STATE   MOCLDY    59  43  55 W7        29.84R
ANNAPOLIS      CLOUDY    60  39  45 W5        29.83R
FORT MEADE*    CLOUDY    52  41  66 CALM      29.87R

$$

MDZ012-015-019>023-191300-
MARYLAND EASTERN SHORE

CITY           SKY/WX    TMP DP  RH WIND       PRES   REMARKS
OCEAN CITY     CLOUDY    57  37  47 NW6       29.82S
SALISBURY      PTCLDY    54  38  54 W3        29.82R
BAY BRIDGE AP* CLOUDY    52  41  66 SW3       29.84R
CAMBRIDGE*     CLOUDY    55  37  50 W3        29.84R

$$

MDZ017>025-191300-
SOUTHERN MARYLAND

CITY           SKY/WX    TMP DP  RH WIND       PRES   REMARKS
PATUXENT RIVER MOCLDY    52  38  58 NW8       29.84R
ST INIGOES     PTCLDY    48  39  71 CALM      29.84R
LEONARDTOWN*   MOCLDY    55  36  47 W5        29.86R

$$

MDZ003>005-191300-
NORTH CENTRAL MARYLAND

CITY           SKY/WX    TMP DP  RH WIND       PRES   REMARKS
FREDERICK*     CLOUDY    55  43  62 W7        29.89R
HAGERSTOWN APT CLOUDY    56  42  59 W8        29.86R
WESTMINSTER*   CLOUDY    57  45  62 W9        29.85R

$$

MDZ501>502-191300-
WESTERN MARYLAND

CITY           SKY/WX    TMP DP  RH WIND       PRES   REMARKS
OAKLAND*       FOG       39  39 100 W13G20    29.92R VSB 1/2
CUMBERLAND*    PTCLDY    54  41  62 W9        29.95R

$$

VAZ025>031-191300-
SHENANDOAH VALLEY

CITY           SKY/WX    TMP DP  RH WIND       PRES   REMARKS
WINCHESTER*    CLOUDY    52  45  76 W8        29.89R
FRONT ROYAL*   CLOUDY    50  48  93 CALM      29.88R
LURAY*         CLOUDY    45  45 100 CALM      29.89R
NEW MARKET*    CLEAR     41  40  95 CALM      29.89R
STAUNTON*      CLEAR     39  37  93 CALM      29.92R
WAYNESBORO*    CLEAR     49  35  58 W3        29.89R

$$

WVZ021-048>050-054>055-191300-
EASTERN WEST VIRGINIA PANHANDLE

CITY           SKY/WX    TMP DP  RH WIND       PRES   REMARKS
MARTINSBURG    CLOUDY    56  41  57 VRB5      29.88R
PETERSBURG*    CLOUDY    49  48  95 CALM      29.93R

$$

VAZ036>039-050-191300-
CENTRAL FOOTHILLS

CITY           SKY/WX    TMP DP  RH WIND       PRES   REMARKS
CHARLOTTESVILL CLEAR     54  38  54 W3        29.86R
CULPEPER*      CLOUDY    53  49  87 CALM      29.87R
ORANGE*        MOCLDY    50  37  62 CALM      29.87R
GORDONSVILLE*  PTCLDY    45  39  81 SW3       29.85R
WARRENTON*     CLOUDY    57  46  65 CALM      29.86R

$$

VAZ055>057-191300-
NORTH AND CENTRAL PIEDMONT

CITY           SKY/WX    TMP DP  RH WIND       PRES   REMARKS
FREDERICKSBRG* CLOUDY    49  41  74 CALM      29.85R
STAFFORD*      CLOUDY    50  48  94 CALM      29.89S

$$

NCZ024-NYZ072-PAZ021-071-VAZ022-071-191300-
OTHER REGIONAL OBSERVATIONS

CITY           SKY/WX    TMP DP  RH WIND       PRES   REMARKS
NEW YORK CITY  CLOUDY    56  34  43 W6        29.78R
PHILADELPHIA   CLOUDY    59  34  39 W8        29.81R
PITTSBURGH     PTCLDY    45  43  93 W6        29.92R
ROANOKE        CLOUDY    53  40  61 NW13      29.95R
RICHMOND       PTCLDY    51  41  68 NW3       29.86R
RALEIGH        PTCLDY    45  42  89 SW6       29.92R

$$

ANZ530>537-191300-
MARINE OBSERVATIONS

STATION/POSITION TIME  TEMP    WIND        PRES
                       AIR SEA DIR/SP/G
                 (UTC) (F)     (DEG/KT/KT) (MB)
THOMAS PT LIGHT  1200   56 39  280/  6/  7   N/A
BALT KEY BRIDGE  1148   59     290/  8/  9 1010.0R
COVE POINT       1148   59     320/ 10/ 12 1010.8R
LEWISETTA        1148   54 42     CALM     1010.3R
SOLOMONS ISLAND  1142   57 42  310/  3/  5   N/A
PINEY POINT      1142          330/  7/  7   N/A

$$




USA.gov is the U.S. government's official web portal to all federal, state and local government web resources and services.